SWA2775 KLAX-KLAS

Flight info

Callsign SWA2775
Flight time 0h 44m
Altitude 25000
Route ORCKA5 MISEN RNDRZ4
Aircraft B38M/M-SDE1FGHILORVWXY/HB1

Departure

Time 2026-05-06 19:42
Airport Los Angeles International Airport (KLAX)

Arrival

Time 2026-05-06 20:27
Airport Harry Reid International Airport (KLAS)
Time Latitude Longitude Altitude Speed Heading
2026-05-06 19:16 33.94790 -118.40127 128 ft 0 kts 187°
2026-05-06 19:31 33.94794 -118.40127 128 ft 3 kts 186°
2026-05-06 19:31 33.94820 -118.40128 124 ft 4 kts 156°
2026-05-06 19:31 33.94836 -118.40163 126 ft 1 kts 83°
2026-05-06 19:32 33.94835 -118.40165 125 ft 0 kts 83°
2026-05-06 19:36 33.94837 -118.40145 125 ft 8 kts 84°
2026-05-06 19:37 33.94857 -118.40089 127 ft 0 kts 40°
2026-05-06 19:37 33.94859 -118.40088 124 ft 2 kts 25°
2026-05-06 19:37 33.94915 -118.40048 126 ft 17 kts 58°
2026-05-06 19:38 33.94943 -118.39941 126 ft 0 kts 50°
2026-05-06 19:38 33.94946 -118.39937 125 ft 0 kts 47°
2026-05-06 19:40 33.94949 -118.39935 125 ft 2 kts 38°
2026-05-06 19:40 33.94997 -118.39916 126 ft 12 kts 359°
2026-05-06 19:40 33.95042 -118.39979 125 ft 9 kts 264°
2026-05-06 19:41 33.95032 -118.40062 125 ft 10 kts 263°
2026-05-06 19:41 33.95022 -118.40153 128 ft 1 kts 266°
2026-05-06 19:42 33.95020 -118.40168 126 ft 13 kts 264°
2026-05-06 19:42 33.94974 -118.40625 124 ft 94 kts 263°
2026-05-06 19:42 33.94867 -118.41661 145 ft 154 kts 262°
2026-05-06 19:42 33.94721 -118.42999 767 ft 165 kts 262°
2026-05-06 19:43 33.94592 -118.44440 1452 ft 184 kts 262°
2026-05-06 19:43 33.94446 -118.46068 2038 ft 205 kts 261°
2026-05-06 19:43 33.94114 -118.47757 2940 ft 209 kts 250°
2026-05-06 19:43 33.93284 -118.49367 3391 ft 249 kts 226°
2026-05-06 19:44 33.91776 -118.50472 4085 ft 269 kts 197°
2026-05-06 19:44 33.89845 -118.50650 4799 ft 291 kts 170°
2026-05-06 19:44 33.87934 -118.49776 5715 ft 298 kts 142°
2026-05-06 19:44 33.86615 -118.47867 6703 ft 299 kts 110°
2026-05-06 19:45 33.86298 -118.45449 7688 ft 295 kts 83°
2026-05-06 19:45 33.86731 -118.43062 8880 ft 285 kts 67°
2026-05-06 19:45 33.87622 -118.41040 10466 ft 266 kts 54°
2026-05-06 19:45 33.88914 -118.39341 11053 ft 285 kts 43°
2026-05-06 19:46 33.90376 -118.37603 11485 ft 306 kts 44°
2026-05-06 19:46 33.91888 -118.35735 11956 ft 323 kts 45°
2026-05-06 19:46 33.93474 -118.33746 12558 ft 334 kts 45°
2026-05-06 19:46 33.94964 -118.31591 13454 ft 336 kts 51°
2026-05-06 19:47 33.96393 -118.29325 14205 ft 341 kts 51°
2026-05-06 19:47 33.97853 -118.27039 14938 ft 344 kts 51°
2026-05-06 19:47 33.99313 -118.24771 15642 ft 347 kts 51°
2026-05-06 19:47 34.00805 -118.22460 16355 ft 350 kts 51°
2026-05-06 19:48 34.02302 -118.20145 17026 ft 354 kts 51°
2026-05-06 19:48 34.03839 -118.17769 17731 ft 357 kts 51°
2026-05-06 19:48 34.05355 -118.15426 18389 ft 360 kts 51°
2026-05-06 19:48 34.06903 -118.13030 18966 ft 363 kts 51°
2026-05-06 19:49 34.08460 -118.10620 19534 ft 366 kts 51°
2026-05-06 19:49 34.10032 -118.08183 20099 ft 368 kts 51°
2026-05-06 19:49 34.11600 -118.05753 20660 ft 371 kts 51°
2026-05-06 19:49 34.13192 -118.03282 21210 ft 374 kts 51°
2026-05-06 19:50 34.14804 -118.00780 21767 ft 377 kts 51°
2026-05-06 19:50 34.16418 -117.98271 22301 ft 379 kts 51°
2026-05-06 19:50 34.18045 -117.95742 22875 ft 381 kts 51°
2026-05-06 19:50 34.19660 -117.93228 23330 ft 386 kts 51°
2026-05-06 19:51 34.21316 -117.90650 23874 ft 389 kts 51°
2026-05-06 19:51 34.22983 -117.88053 24063 ft 391 kts 51°
2026-05-06 19:51 34.24653 -117.85449 24103 ft 390 kts 51°
2026-05-06 19:51 34.26315 -117.82855 24149 ft 390 kts 51°
2026-05-06 19:52 34.27958 -117.80289 24156 ft 390 kts 51°
2026-05-06 19:52 34.29622 -117.77689 24102 ft 390 kts 51°
2026-05-06 19:52 34.31287 -117.75086 24251 ft 391 kts 51°
2026-05-06 19:52 34.32964 -117.72462 24775 ft 393 kts 51°
2026-05-06 19:53 34.34637 -117.69829 24979 ft 396 kts 52°
2026-05-06 19:53 34.36255 -117.67113 25092 ft 401 kts 53°
2026-05-06 19:53 34.37914 -117.64328 25092 ft 411 kts 52°
2026-05-06 19:53 34.39585 -117.61530 25102 ft 418 kts 52°
2026-05-06 19:54 34.41293 -117.58670 25115 ft 419 kts 52°
2026-05-06 19:54 34.43010 -117.55794 25125 ft 419 kts 52°
2026-05-06 19:54 34.44720 -117.52926 25130 ft 419 kts 53°
2026-05-06 19:54 34.46430 -117.50057 25138 ft 419 kts 53°
2026-05-06 19:55 34.48120 -117.47219 25145 ft 419 kts 53°
2026-05-06 19:55 34.49833 -117.44341 25151 ft 419 kts 53°
2026-05-06 19:55 34.51547 -117.41460 25157 ft 419 kts 53°
2026-05-06 19:55 34.53250 -117.38593 25156 ft 419 kts 53°
2026-05-06 19:56 34.54958 -117.35716 25154 ft 419 kts 53°
2026-05-06 19:56 34.56643 -117.32874 25158 ft 419 kts 53°
2026-05-06 19:56 34.58352 -117.29992 25153 ft 419 kts 53°
2026-05-06 19:56 34.60064 -117.27101 25157 ft 419 kts 53°
2026-05-06 19:57 34.61749 -117.24252 25150 ft 419 kts 53°
2026-05-06 19:57 34.63454 -117.21369 25138 ft 419 kts 53°
2026-05-06 19:57 34.65157 -117.18487 25130 ft 419 kts 53°
2026-05-06 19:57 34.66862 -117.15599 25115 ft 419 kts 53°
2026-05-06 19:58 34.68543 -117.12749 25107 ft 419 kts 53°
2026-05-06 19:58 34.70244 -117.09863 25100 ft 418 kts 53°
2026-05-06 19:58 34.71938 -117.06987 25071 ft 419 kts 53°
2026-05-06 19:58 34.73638 -117.04096 25068 ft 419 kts 53°
2026-05-06 19:59 34.75319 -117.01238 25071 ft 419 kts 53°
2026-05-06 19:59 34.77015 -116.98351 25073 ft 419 kts 53°
2026-05-06 19:59 34.78716 -116.95453 25074 ft 419 kts 53°
2026-05-06 19:59 34.80414 -116.92559 25082 ft 419 kts 53°
2026-05-06 20:00 34.82078 -116.89718 25081 ft 419 kts 53°
2026-05-06 20:00 34.83783 -116.86807 25082 ft 419 kts 53°
2026-05-06 20:00 34.85474 -116.83917 25077 ft 419 kts 53°
2026-05-06 20:00 34.87169 -116.81017 25077 ft 419 kts 53°
2026-05-06 20:01 34.88840 -116.78158 25083 ft 419 kts 53°
2026-05-06 20:01 34.90531 -116.75263 25080 ft 419 kts 53°
2026-05-06 20:01 34.92209 -116.72352 25089 ft 419 kts 54°
2026-05-06 20:01 34.93858 -116.69428 25078 ft 419 kts 54°
2026-05-06 20:02 34.95512 -116.66501 25077 ft 419 kts 54°
2026-05-06 20:02 34.97171 -116.63567 25073 ft 419 kts 54°
2026-05-06 20:02 34.98829 -116.60633 25067 ft 419 kts 54°
2026-05-06 20:02 35.00467 -116.57733 25060 ft 419 kts 54°
2026-05-06 20:03 35.02130 -116.54785 25041 ft 419 kts 54°
2026-05-06 20:03 35.03780 -116.51860 25064 ft 419 kts 54°
2026-05-06 20:03 35.05419 -116.48949 25052 ft 419 kts 54°
2026-05-06 20:03 35.07077 -116.46004 25069 ft 419 kts 54°
2026-05-06 20:04 35.08728 -116.43068 25053 ft 419 kts 54°
2026-05-06 20:04 35.10433 -116.40170 25051 ft 418 kts 48°
2026-05-06 20:04 35.12421 -116.37581 25067 ft 418 kts 46°
2026-05-06 20:04 35.14416 -116.34993 25061 ft 418 kts 46°
2026-05-06 20:05 35.16391 -116.32437 25065 ft 418 kts 46°
2026-05-06 20:05 35.18389 -116.29851 25055 ft 418 kts 46°
2026-05-06 20:05 35.20393 -116.27256 25065 ft 418 kts 46°
2026-05-06 20:05 35.22382 -116.24658 25053 ft 418 kts 47°
2026-05-06 20:06 35.24331 -116.21994 25046 ft 418 kts 47°
2026-05-06 20:06 35.26240 -116.19384 24885 ft 407 kts 47°
2026-05-06 20:06 35.28119 -116.16823 24675 ft 402 kts 47°
2026-05-06 20:06 35.29966 -116.14304 24461 ft 399 kts 47°
2026-05-06 20:07 35.31823 -116.11768 24251 ft 398 kts 47°
2026-05-06 20:07 35.33646 -116.09265 24042 ft 398 kts 47°
2026-05-06 20:07 35.35489 -116.06732 23831 ft 397 kts 47°
2026-05-06 20:07 35.37329 -116.04204 23617 ft 396 kts 47°
2026-05-06 20:08 35.38548 -116.02527 23431 ft 394 kts 47°
2026-05-06 20:08 35.40954 -115.99216 22472 ft 393 kts 47°
2026-05-06 20:08 35.42769 -115.96715 21877 ft 391 kts 47°
2026-05-06 20:08 35.44572 -115.94229 21347 ft 388 kts 47°
2026-05-06 20:09 35.45762 -115.92589 21023 ft 384 kts 47°
2026-05-06 20:09 35.47530 -115.90147 20514 ft 381 kts 47°
2026-05-06 20:09 35.49290 -115.87717 20161 ft 374 kts 47°
2026-05-06 20:09 35.50970 -115.85394 19961 ft 364 kts 47°
2026-05-06 20:10 35.52634 -115.83094 19757 ft 354 kts 47°
2026-05-06 20:10 35.54253 -115.80853 19591 ft 345 kts 47°
2026-05-06 20:10 35.56329 -115.77977 19355 ft 333 kts 47°
2026-05-06 20:10 35.57340 -115.76576 19254 ft 327 kts 47°
2026-05-06 20:11 35.58831 -115.74512 19085 ft 318 kts 46°
2026-05-06 20:11 35.60322 -115.72501 18798 ft 314 kts 46°
2026-05-06 20:11 35.61764 -115.70557 18562 ft 309 kts 46°
2026-05-06 20:11 35.63199 -115.68619 18285 ft 305 kts 46°
2026-05-06 20:12 35.64627 -115.66689 17986 ft 303 kts 46°
2026-05-06 20:12 35.66049 -115.64765 17682 ft 304 kts 46°
2026-05-06 20:12 35.67469 -115.62842 17398 ft 304 kts 46°
2026-05-06 20:12 35.68889 -115.60919 17072 ft 303 kts 46°
2026-05-06 20:13 35.70303 -115.59001 16741 ft 300 kts 46°
2026-05-06 20:13 35.71686 -115.57126 16478 ft 297 kts 46°
2026-05-06 20:13 35.73184 -115.55407 16163 ft 295 kts 32°
2026-05-06 20:13 35.74958 -115.54133 15902 ft 294 kts 30°
2026-05-06 20:14 35.76733 -115.52865 15623 ft 294 kts 30°
2026-05-06 20:14 35.78513 -115.51606 15351 ft 293 kts 30°
2026-05-06 20:14 35.80284 -115.50358 15087 ft 292 kts 30°
2026-05-06 20:14 35.82025 -115.49137 14823 ft 290 kts 30°
2026-05-06 20:15 35.83778 -115.47905 14555 ft 287 kts 30°
2026-05-06 20:15 35.85510 -115.46689 14288 ft 286 kts 30°
2026-05-06 20:15 35.87251 -115.45467 14022 ft 287 kts 30°
2026-05-06 20:15 35.88961 -115.44265 13746 ft 286 kts 30°
2026-05-06 20:16 35.90689 -115.43053 13451 ft 283 kts 30°
2026-05-06 20:16 35.92410 -115.41853 13163 ft 284 kts 29°
2026-05-06 20:16 35.94137 -115.40648 12920 ft 284 kts 29°
2026-05-06 20:16 35.95840 -115.39459 12662 ft 284 kts 29°
2026-05-06 20:17 35.97565 -115.38255 12405 ft 284 kts 29°
2026-05-06 20:17 35.99273 -115.37041 12138 ft 284 kts 33°
2026-05-06 20:17 36.00658 -115.35304 11806 ft 287 kts 57°
2026-05-06 20:17 36.01316 -115.32981 11547 ft 291 kts 81°
2026-05-06 20:18 36.01297 -115.30469 11305 ft 294 kts 90°
2026-05-06 20:18 36.01181 -115.27987 11039 ft 291 kts 90°
2026-05-06 20:18 36.01055 -115.25499 10779 ft 289 kts 90°
2026-05-06 20:18 36.00924 -115.23036 10514 ft 285 kts 90°
2026-05-06 20:19 36.00789 -115.20596 10233 ft 283 kts 91°
2026-05-06 20:19 36.00653 -115.18190 9982 ft 279 kts 91°
2026-05-06 20:19 36.00517 -115.15809 9702 ft 276 kts 91°
2026-05-06 20:19 36.00382 -115.13455 9433 ft 273 kts 91°
2026-05-06 20:20 36.00250 -115.11154 9176 ft 271 kts 91°
2026-05-06 20:20 36.00117 -115.08858 8899 ft 264 kts 91°
2026-05-06 20:20 35.99988 -115.06628 8657 ft 256 kts 91°
2026-05-06 20:20 35.99939 -115.04467 8405 ft 248 kts 87°
2026-05-06 20:21 35.99924 -115.02361 8165 ft 242 kts 88°
2026-05-06 20:21 35.99911 -115.00301 7897 ft 239 kts 87°
2026-05-06 20:21 35.99903 -114.98228 7514 ft 243 kts 88°
2026-05-06 20:21 35.99890 -114.96118 7157 ft 247 kts 88°
2026-05-06 20:22 35.99914 -114.93993 6621 ft 256 kts 81°
2026-05-06 20:22 36.00609 -114.92017 6126 ft 250 kts 46°
2026-05-06 20:22 36.01995 -114.90859 5884 ft 234 kts 17°
2026-05-06 20:22 36.03549 -114.90698 5789 ft 224 kts 349°
2026-05-06 20:23 36.04998 -114.91306 5524 ft 221 kts 338°
2026-05-06 20:23 36.06319 -114.92237 5160 ft 219 kts 316°
2026-05-06 20:23 36.07109 -114.93782 4954 ft 209 kts 291°
2026-05-06 20:23 36.07407 -114.95511 4702 ft 202 kts 275°
2026-05-06 20:24 36.07413 -114.97206 4507 ft 192 kts 269°
2026-05-06 20:24 36.07377 -114.98843 4244 ft 189 kts 270°
2026-05-06 20:24 36.07371 -115.00441 4016 ft 180 kts 271°
2026-05-06 20:24 36.07370 -115.01893 3822 ft 162 kts 271°
2026-05-06 20:25 36.07370 -115.03237 3643 ft 154 kts 271°
2026-05-06 20:25 36.07371 -115.04549 3431 ft 152 kts 271°
2026-05-06 20:25 36.07369 -115.05859 3220 ft 151 kts 270°
2026-05-06 20:25 36.07368 -115.07162 3021 ft 150 kts 271°
2026-05-06 20:26 36.07368 -115.08437 2811 ft 150 kts 270°
2026-05-06 20:26 36.07353 -115.09721 2590 ft 149 kts 269°
2026-05-06 20:26 36.07355 -115.11004 2327 ft 147 kts 271°
2026-05-06 20:26 36.07372 -115.12271 2137 ft 146 kts 271°
2026-05-06 20:27 36.07368 -115.13467 2083 ft 119 kts 269°
2026-05-06 20:27 36.07367 -115.14174 2110 ft 43 kts 270°
2026-05-06 20:27 36.07367 -115.14242 2114 ft 0 kts 271°
2026-05-06 20:27 36.07367 -115.14260 2115 ft 8 kts 271°
2026-05-06 20:28 36.07368 -115.14355 2119 ft 12 kts 269°
2026-05-06 20:28 36.07367 -115.14460 2122 ft 14 kts 268°
2026-05-06 20:28 36.07364 -115.14618 2124 ft 22 kts 268°
2026-05-06 20:28 36.07383 -115.14811 2130 ft 24 kts 293°
2026-05-06 20:29 36.07456 -115.15016 2136 ft 23 kts 295°
2026-05-06 20:29 36.07477 -115.15067 2139 ft 2 kts 298°
2026-05-06 20:29 36.07489 -115.15093 2141 ft 1 kts 299°
2026-05-06 20:29 36.07497 -115.15110 2142 ft 4 kts 300°
2026-05-06 20:30 36.07508 -115.15126 2144 ft 0 kts 329°
2026-05-06 20:30 36.07512 -115.15129 2145 ft 0 kts 331°
2026-05-06 20:30 36.07530 -115.15140 2147 ft 4 kts 338°
2026-05-06 20:31 36.07604 -115.15178 2153 ft 20 kts 336°
2026-05-06 20:31 36.07752 -115.15261 2155 ft 25 kts 334°
2026-05-06 20:31 36.07915 -115.15357 2156 ft 27 kts 335°
2026-05-06 20:31 36.08099 -115.15462 2148 ft 27 kts 334°
2026-05-06 20:32 36.08277 -115.15564 2141 ft 25 kts 339°
2026-05-06 20:32 36.08342 -115.15543 2135 ft 7 kts 49°
2026-05-06 20:32 36.08355 -115.15496 2134 ft 0 kts 71°
2026-05-06 20:34 36.08373 -115.15439 2131 ft 5 kts 84°
2026-05-06 20:34 36.08367 -115.15404 2130 ft 5 kts 110°
2026-05-06 20:34 36.08362 -115.15397 2131 ft 0 kts 139°
2026-05-06 20:34 36.08344 -115.15381 2132 ft 6 kts 143°
2026-05-06 20:35 36.08325 -115.15363 2133 ft 0 kts 143°
2026-05-06 20:35 36.08322 -115.15360 2133 ft 0 kts 142°